TimePST,TemperatureF,Dew PointF,Humidity,Sea Level PressureIn,VisibilityMPH,Wind Direction,Wind SpeedMPH,Gust SpeedMPH,PrecipitationIn,Events,Conditions,WindDirDegrees,DateUTC
12:11 AM,46.4,44.6,93,30.24,0.5,North,3.5,-,N/A,Fog,Fog,360,2013-02-02 08:11:00
1:17 AM,46.4,44.6,93,30.25,0.5,Calm,Calm,-,N/A,Fog,Fog,0,2013-02-02 09:17:00
1:53 AM,45.0,45.0,100,30.25,0.8,North,3.5,-,N/A,,Mist,10,2013-02-02 09:53:00
2:53 AM,46.0,45.0,96,30.26,0.5,North,3.5,-,N/A,Fog,Fog,10,2013-02-02 10:53:00
4:43 AM,46.4,44.6,93,30.23,0.2,Calm,Calm,-,N/A,Fog,Fog,0,2013-02-02 12:43:00
4:53 AM,45.0,44.1,97,30.24,0.2,Calm,Calm,-,N/A,Fog,Fog,0,2013-02-02 12:53:00
5:07 AM,44.6,44.6,100,30.23,0.5,Calm,Calm,-,N/A,Fog,Fog,0,2013-02-02 13:07:00
5:53 AM,46.0,45.0,96,30.25,0.5,Calm,Calm,-,N/A,Fog,Fog,0,2013-02-02 13:53:00
6:13 AM,44.6,44.6,100,30.24,0.2,Calm,Calm,-,N/A,Fog,Fog,0,2013-02-02 14:13:00
6:53 AM,45.0,44.1,97,30.26,0.2,Calm,Calm,-,N/A,Fog,Fog,0,2013-02-02 14:53:00
7:53 AM,46.0,45.0,96,30.28,0.2,NNW,3.5,-,N/A,Fog,Fog,330,2013-02-02 15:53:00
8:43 AM,46.4,44.6,93,30.29,1.0,Calm,Calm,-,N/A,,Mist,0,2013-02-02 16:43:00
8:53 AM,46.0,45.0,96,30.29,1.5,Calm,Calm,-,N/A,,Overcast,0,2013-02-02 16:53:00
8:58 AM,46.4,44.6,93,30.29,0.8,Calm,Calm,-,N/A,,Overcast,0,2013-02-02 16:58:00
9:10 AM,46.4,44.6,93,30.29,0.2,Calm,Calm,-,N/A,Fog,Fog,0,2013-02-02 17:10:00
9:29 AM,46.4,44.6,93,30.28,0.8,Calm,Calm,-,N/A,,Mist,0,2013-02-02 17:29:00
9:46 AM,46.4,46.4,100,30.29,0.2,Calm,Calm,-,N/A,Fog,Fog,0,2013-02-02 17:46:00
9:53 AM,46.0,46.0,100,30.29,0.2,Calm,Calm,-,N/A,Fog,Fog,0,2013-02-02 17:53:00
10:03 AM,46.4,46.4,100,30.29,0.5,Calm,Calm,-,N/A,Fog,Fog,0,2013-02-02 18:03:00
10:14 AM,46.4,46.4,100,30.29,1.5,Calm,Calm,-,N/A,,Overcast,0,2013-02-02 18:14:00
10:20 AM,46.4,46.4,100,30.29,3.0,Calm,Calm,-,N/A,,Overcast,0,2013-02-02 18:20:00
10:53 AM,48.0,46.0,93,30.30,6.0,Calm,Calm,-,N/A,,Mostly Cloudy,0,2013-02-02 18:53:00
11:42 AM,51.8,46.4,82,30.28,7.0,Calm,Calm,-,N/A,,Partly Cloudy,0,2013-02-02 19:42:00
11:53 AM,51.1,46.9,86,30.28,7.0,Calm,Calm,-,N/A,,Partly Cloudy,0,2013-02-02 19:53:00
12:53 PM,53.1,48.0,83,30.26,10.0,SE,5.8,-,N/A,,Clear,140,2013-02-02 20:53:00
1:53 PM,55.0,46.9,74,30.25,10.0,SSE,3.5,-,N/A,,Clear,160,2013-02-02 21:53:00
2:53 PM,57.0,46.9,69,30.22,10.0,Calm,Calm,-,N/A,,Clear,0,2013-02-02 22:53:00
3:53 PM,54.0,46.0,75,30.23,10.0,South,4.6,-,N/A,,Clear,180,2013-02-02 23:53:00
4:53 PM,55.0,46.9,74,30.24,10.0,Calm,Calm,-,N/A,,Clear,0,2013-02-03 00:53:00
5:53 PM,52.0,46.0,80,30.22,10.0,Calm,Calm,-,N/A,,Clear,0,2013-02-03 01:53:00
6:53 PM,50.0,45.0,83,30.23,9.0,Calm,Calm,-,N/A,,Clear,0,2013-02-03 02:53:00
7:53 PM,48.0,45.0,89,30.24,8.0,Calm,Calm,-,N/A,,Clear,0,2013-02-03 03:53:00
9:53 PM,44.1,43.0,96,30.24,7.0,Calm,Calm,-,N/A,,Clear,0,2013-02-03 05:53:00
10:53 PM,45.0,42.1,90,30.25,7.0,NNW,3.5,-,N/A,,Clear,330,2013-02-03 06:53:00
11:53 PM,43.0,41.0,93,30.25,5.0,NNW,3.5,-,N/A,,Clear,330,2013-02-03 07:53:00